[[{"header":{"parameterUnit":"m.s-1","parameterCategory":1,"la1":30.2991,"la2":30.254,"lo1":-89.0895,"lo2":-89.0444,"dy":0.0017,"dx":0.0017,"nx":28,"ny":28,"refTime":"2024-08-21T09:00:00:Z","depth":0,"parameterNumber":2,"parameterNumberName":"U-component_of_WINDS"},"data":[0,0,0,0,0,0,0,0,0,0,0,0,0,0,0,0,0,0,0,0,0,0,0,0,0,0,0,0,0,0,0,0,0,0,0,0,0,0,0,0,0,0,0,0,0,0,0,0,0,0,0,0,0,0,0,0,0,0,-2.6542,-2.6542,0,-2.6481,-2.648,-2.648,-2.6351,-2.6349,-2.6346,-2.6344,-2.6284,-2.6285,-2.6285,0,0,0,0,0,0,0,0,0,0,0,0,0,-2.6551,-2.6552,-2.6543,-2.6542,-2.6541,-2.6481,-2.648,-2.648,-2.6352,-2.6349,-2.6345,-2.6343,-2.6283,-2.6284,-2.6285,0,0,0,0,0,0,0,0,0,0,0,0,0,-2.6525,-2.6552,-2.6543,-2.647,-2.6463,-2.6481,-2.648,-2.6479,-2.6352,-2.6349,-2.6345,-2.6341,-2.6283,-2.6284,-2.6286,-2.6371,0,0,-2.6289,-2.629,0,0,0,0,0,0,0,0,-2.6526,-2.6524,-2.6481,-2.6475,-2.6467,-2.642,-2.6461,-2.6443,-2.6353,-2.6395,-2.6344,-2.6339,-2.6332,-2.6329,-2.6326,-2.6368,-2.6365,-2.6289,-2.629,-2.6291,-2.6291,0,0,0,0,0,0,0,-2.6528,-2.6526,-2.6518,-2.6481,-2.6472,-2.6441,-2.6433,-2.6457,-2.6386,-2.6391,-2.6381,-2.6375,-2.6328,-2.6326,-2.6324,-2.6365,-2.6289,-2.629,-2.6291,-2.6292,-2.6471,-2.6475,0,0,0,0,0,0,-2.654,-2.6529,-2.652,-2.6516,-2.6488,-2.6444,-2.6435,-2.6439,-2.6385,-2.6373,-2.6379,-2.637,-2.6325,-2.6323,-2.6321,-2.6416,-2.6291,-2.6292,-2.6292,-2.6467,-2.6472,-2.6477,0,0,0,0,0,0,-2.6541,-2.6541,-2.6523,-2.652,-2.6515,-2.6448,-2.6454,-2.644,-2.6437,-2.6376,-2.6363,-2.6389,-2.6322,-2.632,-2.6359,-2.6412,-2.6292,-2.6293,-2.6463,-2.6469,-2.6474,-2.6607,0,0,0,0,0,0,-2.6542,-2.6542,-2.6573,-2.6522,-2.6516,-2.6561,-2.6457,-2.6441,-2.6439,-2.6427,-2.6383,-2.6372,-2.6319,-2.6358,-2.636,-2.6411,-2.6294,-2.6457,-2.6465,-2.6472,-2.6597,-2.6616,-2.6633,0,0,0,0,0,-2.6543,-2.6614,-2.6575,-2.6575,-2.6553,-2.6564,-2.6561,-2.6498,-2.6444,-2.6475,-2.6436,-2.6373,-2.6407,-2.6363,-2.6364,-2.6417,-2.6454,-2.6463,-2.6472,-2.6589,-2.6613,-2.6632,0,0,0,0,0,0,-2.6674,-2.6605,-2.6562,-2.6618,-2.6598,-2.6542,-2.6579,-2.6525,-2.652,-2.6508,-2.6431,-2.6422,-2.6471,-2.6448,-2.6401,-2.6496,-2.642,-2.643,-2.6509,-2.653,-2.6548,-2.6551,-2.6295,0,0,0,0,0,-2.6709,-2.6723,-2.6663,-2.6719,-2.671,-2.6647,-2.665,-2.6602,-2.6578,-2.6569,-2.6533,-2.6513,-2.6518,-2.6523,-2.6525,-2.6594,-2.6582,-2.6631,-2.6649,-2.6664,-2.6673,-2.6705,-2.6726,-2.6506,-2.6506,-2.6506,0,0,-2.6783,-2.6747,-2.6761,-2.6744,-2.6722,-2.6739,-2.6641,-2.6662,-2.6673,-2.6573,-2.6606,-2.658,-2.6552,-2.6606,-2.6628,-2.6588,-2.6731,-2.6676,-2.6688,-2.6688,-2.6717,-2.6738,-2.6756,-2.6513,-2.6511,-2.651,0,0,-2.6924,-2.6899,-2.6941,-2.6922,-2.689,-2.6848,-2.6859,-2.6811,-2.6789,-2.6821,-2.6746,-2.6759,-2.6771,-2.6753,-2.6746,-2.6882,-2.6823,-2.6885,-2.6977,-2.701,-2.7027,-2.7042,-2.7089,-2.7106,-2.6894,-2.6895,-2.6895,0,-2.7019,-2.7039,-2.6971,-2.6996,-2.6991,-2.69,-2.6943,-2.6927,-2.6899,-2.6897,-2.6854,-2.6865,-2.6841,-2.6888,-2.6921,-2.6919,-2.6928,-2.6888,-2.7031,-2.7045,-2.7058,-2.7101,-2.7119,-2.6902,-2.6901,-2.69,-2.69,0,-2.7157,-2.7173,-2.7211,-2.7184,-2.7183,-2.7218,-2.7154,-2.7162,-2.7116,-2.7078,-2.7113,-2.708,-2.7073,-2.7081,-2.7037,-2.7123,-2.7099,-2.7044,-2.6966,-2.7087,-2.7126,-2.7142,-2.6913,-2.691,-2.6908,-2.6906,0,0,-2.7377,-2.7312,-2.7327,-2.7313,-2.7272,-2.7282,-2.7313,-2.7305,-2.7312,-2.7297,-2.7319,-2.7332,-2.728,-2.7272,-2.7226,-2.7255,-2.7362,-2.7196,-2.7194,-2.7226,-2.7452,-2.7492,-2.7512,-2.7324,-2.7327,-2.7329,-2.7454,0,-2.7507,-2.7553,-2.7492,-2.7553,-2.7565,-2.748,-2.7507,-2.7485,-2.7451,-2.7457,-2.742,-2.7429,-2.7362,-2.7356,-2.7382,-2.7344,-2.7406,-2.7334,-2.7344,-2.7345,-2.735,-2.7533,-2.7574,-2.7693,-2.7469,-2.7471,-2.7473,0,-2.7663,-2.7653,-2.7715,-2.7668,-2.7672,-2.7696,-2.7683,-2.7691,-2.7665,-2.7638,-2.763,-2.7573,-2.76,-2.7526,-2.7562,-2.7514,-2.7515,-2.7497,-2.75,-2.7496,-2.7415,-2.7531,-2.773,-2.7747,-2.7497,-2.7495,-2.7494,0,-2.7815,-2.7817,-2.7853,-2.7844,-2.7792,-2.7811,-2.7791,-2.7761,-2.7759,-2.7749,-2.7747,-2.7742,-2.7738,-2.7734,-2.7678,-2.763,-2.772,-2.7642,-2.7697,-2.7699,-2.7718,-2.7717,-2.7917,-2.7724,-2.7723,-2.7723,-2.7723,0,-2.7964,-2.8004,-2.792,-2.7942,-2.7985,-2.7915,-2.796,-2.7931,-2.7905,-2.792,-2.7847,-2.7863,-2.7789,-2.7797,-2.7754,-2.7788,-2.7788,-2.7767,-2.7754,-2.7772,-2.7774,-2.7769,-2.7758,-2.7728,-2.7727,-2.7726,-2.7725,0,-2.8139,-2.8084,-2.8117,-2.8066,-2.8054,-2.8087,-2.8043,-2.8061,-2.8023,-2.8043,-2.8044,-2.7985,-2.799,-2.7935,-2.793,-2.7901,-2.7955,-2.793,-2.7964,-2.7955,-2.8012,-2.8007,-2.8213,-2.8236,-2.8032,-2.8034,-2.8036,0,-2.8236,-2.8265,-2.8216,-2.822,-2.8203,-2.8212,-2.8209,-2.8144,-2.8145,-2.8117,-2.8139,-2.8138,-2.8134,-2.8148,-2.8104,-2.81,-2.8072,-2.8145,-2.8071,-2.8087,-2.807,-2.8068,-2.807,-2.816,-2.8162,-2.8164,-2.8166,0,-2.8414,-2.8385,-2.8385,-2.8375,-2.8375,-2.8365,-2.835,-2.8358,-2.8286,-2.8291,-2.8295,-2.8292,-2.8287,-2.8287,-2.8275,-2.8254,-2.8198,-2.819,-2.8202,-2.8219,-2.8236,-2.8225,-2.8003,-2.8185,-2.8183,-2.8182,-2.8181,-2.818,-2.8551,-2.8571,-2.854,-2.8542,-2.8523,-2.8511,-2.8525,-2.8489,-2.8491,-2.8481,-2.8443,-2.8454,-2.8426,-2.8404,-2.8388,-2.8396,-2.8361,-2.8379,-2.8383,-2.8388,-2.8397,-2.8238,-2.8394,-2.8394,-2.8393,-2.8392,-2.8392,0,-2.8722,-2.8698,-2.87,-2.8681,-2.8683,-2.863,-2.8611,-2.8615,-2.8626,-2.8605,-2.8602,-2.8607,-2.8607,-2.8564,-2.8559,-2.8573,-2.8547,-2.8574,-2.8571,-2.8566,-2.8431,-2.8419,-2.8595,-2.8595,-2.8595,-2.8595,-2.8595,-2.8595,-2.8811,-2.8843,-2.8811,-2.8833,-2.8809,-2.8818,-2.8811,-2.8799,-2.8782,-2.879,-2.879,-2.8762,-2.8732,-2.8724,-2.8721,-2.8709,-2.8709,-2.8744,-2.8723,-2.8596,-2.8576,-2.8557,-2.8546,-2.8745,-2.8746,-2.8857,-2.8858,-2.8859]},{"header":{"parameterUnit":"m.s-1","parameterCategory":1,"la1":30.2991,"la2":30.254,"lo1":-89.0895,"lo2":-89.0444,"dy":0.0017,"dx":0.0017,"nx":28,"ny":28,"refTime":"2024-08-21T09:00:00:Z","depth":0,"parameterNumber":3,"parameterNumberName":"V-component_of_WINDS"},"data":[0,0,0,0,0,0,0,0,0,0,0,0,0,0,0,0,0,0,0,0,0,0,0,0,0,0,0,0,0,0,0,0,0,0,0,0,0,0,0,0,0,0,0,0,0,0,0,0,0,0,0,0,0,0,0,0,0,0,-1.5423,-1.5424,0,-1.5531,-1.5532,-1.5533,-1.5568,-1.5567,-1.5567,-1.5566,-1.5677,-1.568,-1.5683,0,0,0,0,0,0,0,0,0,0,0,0,0,-1.5246,-1.5249,-1.5423,-1.5424,-1.5426,-1.5531,-1.5532,-1.5534,-1.5568,-1.5567,-1.5567,-1.5566,-1.5676,-1.568,-1.5684,0,0,0,0,0,0,0,0,0,0,0,0,0,-1.5335,-1.525,-1.5423,-1.5455,-1.5459,-1.553,-1.5532,-1.5534,-1.5568,-1.5567,-1.5566,-1.5566,-1.5674,-1.5679,-1.5684,-1.5731,0,0,-1.57,-1.5702,0,0,0,0,0,0,0,0,-1.533,-1.5341,-1.5449,-1.5453,-1.5458,-1.5535,-1.551,-1.56,-1.5568,-1.5527,-1.5566,-1.5565,-1.563,-1.5639,-1.5661,-1.5736,-1.574,-1.57,-1.5703,-1.5706,-1.5707,0,0,0,0,0,0,0,-1.5324,-1.5337,-1.5466,-1.5451,-1.5456,-1.5464,-1.5476,-1.5527,-1.5581,-1.553,-1.5533,-1.5545,-1.5632,-1.5656,-1.5664,-1.5742,-1.57,-1.5705,-1.5708,-1.571,-1.5859,-1.586,0,0,0,0,0,0,-1.5312,-1.5331,-1.5462,-1.5469,-1.5391,-1.5468,-1.5481,-1.5511,-1.5581,-1.5591,-1.5546,-1.5546,-1.5647,-1.5658,-1.5668,-1.5726,-1.5705,-1.571,-1.5713,-1.5858,-1.5859,-1.586,0,0,0,0,0,0,-1.5308,-1.5323,-1.5458,-1.5401,-1.5419,-1.5472,-1.5505,-1.5513,-1.5537,-1.5593,-1.5602,-1.556,-1.5647,-1.566,-1.5714,-1.573,-1.5713,-1.5717,-1.5857,-1.5859,-1.586,-1.5842,0,0,0,0,0,0,-1.5303,-1.5322,-1.534,-1.5401,-1.5422,-1.5503,-1.5506,-1.5516,-1.5546,-1.5548,-1.5608,-1.5618,-1.5648,-1.5707,-1.5719,-1.5737,-1.5721,-1.5856,-1.5858,-1.5859,-1.5842,-1.5843,-1.5844,0,0,0,0,0,-1.5296,-1.5331,-1.5341,-1.5356,-1.5446,-1.5504,-1.5516,-1.5549,-1.5547,-1.5565,-1.5601,-1.5616,-1.5726,-1.5712,-1.5727,-1.5746,-1.5855,-1.5857,-1.5859,-1.5841,-1.5843,-1.5844,0,0,0,0,0,0,-1.5271,-1.534,-1.5351,-1.5407,-1.5449,-1.551,-1.5534,-1.555,-1.5594,-1.5594,-1.5634,-1.5647,-1.5698,-1.5727,-1.571,-1.5793,-1.5791,-1.5796,-1.5772,-1.5774,-1.5775,-1.5767,-1.5725,0,0,0,0,0,-1.5272,-1.5313,-1.5371,-1.5415,-1.5435,-1.5481,-1.5508,-1.553,-1.5575,-1.5593,-1.5633,-1.5676,-1.5721,-1.5749,-1.5793,-1.5846,-1.5859,-1.5866,-1.5867,-1.5868,-1.5872,-1.5901,-1.5904,-1.5867,-1.5867,-1.5867,0,0,-1.5274,-1.5317,-1.5341,-1.5411,-1.5446,-1.5488,-1.5496,-1.554,-1.5571,-1.56,-1.5653,-1.5684,-1.5735,-1.5788,-1.5813,-1.5814,-1.5885,-1.5871,-1.5871,-1.5874,-1.5903,-1.5907,-1.591,-1.5868,-1.5868,-1.5868,0,0,-1.5299,-1.5336,-1.5376,-1.5411,-1.5464,-1.5494,-1.5503,-1.5561,-1.5583,-1.5636,-1.5659,-1.5696,-1.5772,-1.5807,-1.5835,-1.5872,-1.5887,-1.5885,-1.5891,-1.5918,-1.5921,-1.5924,-1.5937,-1.5941,-1.5889,-1.5889,-1.5889,0,-1.5296,-1.5359,-1.5394,-1.5437,-1.5467,-1.5494,-1.5534,-1.5567,-1.5632,-1.5651,-1.5651,-1.5746,-1.5782,-1.5843,-1.5852,-1.5874,-1.5886,-1.5878,-1.5918,-1.5921,-1.5924,-1.5937,-1.5941,-1.5888,-1.5888,-1.5888,-1.5888,0,-1.5351,-1.5395,-1.5421,-1.5482,-1.5515,-1.5556,-1.5597,-1.5626,-1.5644,-1.5674,-1.5728,-1.5773,-1.5825,-1.5842,-1.5861,-1.5906,-1.5904,-1.591,-1.5909,-1.5927,-1.5939,-1.5944,-1.5887,-1.5887,-1.5888,-1.5888,0,0,-1.5365,-1.5444,-1.5453,-1.548,-1.554,-1.5575,-1.5617,-1.5668,-1.5692,-1.5735,-1.5771,-1.5834,-1.5839,-1.5871,-1.5894,-1.5919,-1.5944,-1.5922,-1.5924,-1.5924,-1.5995,-1.5989,-1.5994,-1.5954,-1.5955,-1.5956,-1.599,0,-1.5397,-1.5473,-1.5505,-1.5566,-1.5607,-1.5633,-1.5669,-1.571,-1.5738,-1.5776,-1.5808,-1.5852,-1.5857,-1.5876,-1.5901,-1.5935,-1.5959,-1.5934,-1.5987,-1.5989,-1.5973,-1.6001,-1.5995,-1.6025,-1.5995,-1.5996,-1.5997,0,-1.5446,-1.5489,-1.5553,-1.5607,-1.5626,-1.5658,-1.5707,-1.5743,-1.5789,-1.5808,-1.5842,-1.5864,-1.5909,-1.5904,-1.5965,-1.5947,-1.5971,-1.5991,-1.5993,-1.6,-1.5993,-1.6007,-1.6036,-1.604,-1.6005,-1.6004,-1.6003,0,-1.5448,-1.5522,-1.557,-1.5593,-1.5657,-1.5679,-1.5707,-1.5752,-1.5781,-1.5823,-1.5842,-1.589,-1.5916,-1.5952,-1.5985,-1.5979,-1.6043,-1.6042,-1.606,-1.6059,-1.6072,-1.6071,-1.6105,-1.6088,-1.6088,-1.6088,-1.6088,0,-1.548,-1.5519,-1.5571,-1.5601,-1.5644,-1.5681,-1.5723,-1.5752,-1.5792,-1.5828,-1.5853,-1.5886,-1.5929,-1.5967,-1.5993,-1.6039,-1.6051,-1.6067,-1.6074,-1.6065,-1.6063,-1.6081,-1.608,-1.6089,-1.6089,-1.6088,-1.6088,0,-1.549,-1.5527,-1.5581,-1.5637,-1.5652,-1.5681,-1.5729,-1.5759,-1.5788,-1.5833,-1.5845,-1.5891,-1.5937,-1.5974,-1.6035,-1.6053,-1.61,-1.6108,-1.6085,-1.6088,-1.6104,-1.6102,-1.615,-1.6158,-1.6136,-1.6136,-1.6137,0,-1.5509,-1.5539,-1.5597,-1.5623,-1.565,-1.5691,-1.572,-1.5756,-1.5785,-1.5839,-1.5862,-1.5909,-1.5949,-1.6021,-1.606,-1.6106,-1.6115,-1.6129,-1.6122,-1.6111,-1.6114,-1.6112,-1.6115,-1.6129,-1.6129,-1.6129,-1.6129,0,-1.5537,-1.5553,-1.5594,-1.564,-1.5674,-1.5713,-1.5752,-1.5771,-1.5814,-1.5846,-1.5893,-1.5923,-1.5984,-1.6031,-1.6081,-1.6109,-1.6126,-1.6131,-1.6138,-1.6128,-1.6113,-1.6121,-1.6086,-1.613,-1.613,-1.613,-1.613,-1.613,-1.5551,-1.5578,-1.5624,-1.5668,-1.5701,-1.5737,-1.5767,-1.5799,-1.5839,-1.5891,-1.591,-1.5958,-1.6002,-1.6071,-1.61,-1.6137,-1.6139,-1.6149,-1.6151,-1.6153,-1.6151,-1.6107,-1.6147,-1.6147,-1.6147,-1.6147,-1.6147,0,-1.558,-1.561,-1.565,-1.5704,-1.5738,-1.5751,-1.5794,-1.5822,-1.5864,-1.5904,-1.5942,-1.5996,-1.6041,-1.6083,-1.613,-1.6152,-1.6161,-1.6163,-1.6161,-1.6168,-1.6147,-1.6137,-1.6155,-1.6155,-1.6155,-1.6155,-1.6155,-1.6155,-1.5599,-1.5646,-1.5667,-1.573,-1.576,-1.5807,-1.5831,-1.5864,-1.5895,-1.5954,-1.5991,-1.6018,-1.6059,-1.6108,-1.615,-1.6161,-1.6177,-1.6177,-1.619,-1.617,-1.6169,-1.6168,-1.6158,-1.618,-1.618,-1.6207,-1.6208,-1.6208]}]]